Theta_e
345 347 348 349 349 351 352 353 353 355 356 358 359 359 360 359 361 360 363 364 363 362 362 360 358 357 358 358 359 362 363 364 363 363 363 363 364 364 364 364 364 364 363 362 360 357 358 356 355 356 357 356 354 352 354 352 350 350 350 351 348 347 346 348 348 348 344 342 346 347 346 349 349 349 346 346 346 347 349 350 352 352 353 352 353
344 345 346 348 348 349 350 352 353 352 355 357 357 358 360 361 360 361 363 362 362 363 362 361 361 360 359 358 361 361 362 361 361 363 362 362 365 365 365 364 364 363 363 362 358 357 356 355 355 356 355 354 355 354 352 350 349 350 350 348 349 346 344 346 347 346 340 336 336 338 342 344 348 347 342 342 344 346 347 347 348 345 345 346 347
342 343 345 345 346 347 349 350 351 352 354 355 357 358 360 359 360 362 363 363 363 364 364 363 365 366 364 363 362 361 365 365 362 363 365 363 365 365 365 365 364 363 362 359 357 356 356 356 355 356 355 355 353 353 352 351 350 349 348 346 345 345 344 347 347 347 338 340 339 337 335 334 340 343 342 342 342 343 342 341 342 340 341 344 347
340 341 342 344 345 346 347 349 350 352 353 355 356 357 358 359 360 361 362 363 364 364 364 365 366 367 367 366 365 363 361 365 366 365 365 363 362 363 364 365 364 362 361 358 358 357 357 357 357 355 356 355 352 349 350 352 350 349 348 347 345 342 343 342 347 347 344 340 333 333 334 333 329 334 336 341 341 341 340 339 340 339 341 344 343
340 340 342 343 344 344 346 348 350 350 352 353 355 356 357 359 360 361 361 362 364 365 365 366 365 363 363 363 363 361 361 362 360 359 361 362 361 362 361 363 363 362 361 361 361 360 359 358 357 356 353 355 353 351 350 350 350 349 349 347 345 341 339 340 343 346 344 346 339 334 333 330 329 331 333 337 338 338 339 339 340 338 338 341 340
341 341 341 342 343 344 346 348 349 350 351 353 355 356 358 359 360 361 361 362 363 365 366 365 363 360 357 355 353 353 353 353 354 354 356 357 357 359 362 362 362 362 362 362 360 359 359 358 357 353 351 352 351 349 351 351 350 350 349 348 345 346 342 339 339 344 343 344 344 342 340 331 329 333 333 329 341 341 344 340 340 335 337 339 340
340 341 342 341 343 343 345 347 348 348 351 353 355 356 358 359 360 361 360 361 363 364 365 364 362 361 360 359 357 355 353 354 358 359 358 359 361 361 362 360 361 360 360 361 360 360 359 359 356 351 350 350 352 352 349 349 349 349 350 348 346 347 345 340 339 339 342 342 342 342 342 341 340 335 328 332 329 336 338 335 334 334 336 337 334
337 339 341 342 343 343 343 346 348 347 351 353 353 355 357 359 360 360 360 360 362 364 364 365 362 361 361 360 359 358 357 357 357 358 360 361 359 359 360 360 360 362 360 361 360 356 354 354 355 351 351 351 352 351 349 349 350 350 350 349 348 346 344 340 339 339 338 338 342 340 340 341 339 339 339 333 329 328 330 335 337 333 333 329 330
338 338 339 341 342 343 344 346 348 349 350 352 353 354 356 358 359 360 360 360 361 363 363 364 363 363 361 361 359 360 361 360 357 355 354 357 357 360 361 360 360 360 361 357 355 353 351 352 354 352 351 351 352 351 350 351 350 348 348 347 346 346 345 344 341 340 339 338 338 338 338 337 337 337 336 336 332 327 328 329 332 336 334 329 331
338 338 340 341 343 343 345 347 348 348 350 354 354 354 355 357 358 359 359 359 361 362 363 364 363 363 361 361 360 360 360 358 355 353 354 355 355 357 359 358 358 357 355 354 353 352 351 353 351 351 351 351 351 350 350 351 350 349 348 348 348 345 345 345 342 342 342 342 340 338 336 336 336 335 334 333 332 332 327 328 331 329 327 329 332
336 337 339 342 344 344 345 345 348 349 351 352 352 353 354 355 356 357 358 359 361 361 362 362 363 363 361 361 361 360 359 356 352 352 351 352 353 354 355 356 356 352 348 350 350 351 353 354 349 351 351 351 351 350 349 349 347 348 348 349 348 347 344 344 342 342 342 341 340 339 336 336 334 334 333 333 332 330 329 329 330 330 327 328 333
336 337 338 341 343 344 345 345 348 350 350 350 350 352 353 354 356 356 358 359 360 360 361 361 361 362 362 362 361 361 359 355 353 351 350 349 351 350 352 352 351 350 350 348 348 348 352 352 352 352 351 350 349 350 349 348 348 349 348 347 347 348 348 345 343 341 341 341 340 340 340 338 337 336 335 335 332 331 329 328 329 332 331 331 333
336 337 338 339 342 343 344 346 349 349 348 350 349 350 353 355 356 355 357 359 360 360 360 361 362 362 362 361 361 362 359 356 355 353 351 350 349 349 349 347 348 346 347 346 345 348 350 352 352 351 349 350 349 349 348 349 349 348 348 347 346 346 346 345 343 342 343 341 340 341 341 339 338 338 337 336 336 335 332 327 329 331 327 327 334
336 337 338 340 343 343 345 347 348 348 349 349 351 351 353 354 356 355 357 360 360 360 360 361 361 362 363 362 361 361 358 357 355 353 352 351 350 349 347 346 347 345 346 346 346 347 348 349 350 349 350 350 350 349 348 349 350 348 347 346 345 346 346 345 345 343 344 344 344 341 340 340 340 340 339 337 335 334 332 329 327 329 331 327 331
338 338 338 340 344 345 346 348 348 349 348 348 350 352 355 354 356 356 357 360 360 360 360 360 361 362 362 362 361 361 358 356 354 353 352 350 350 349 350 348 347 347 347 349 350 350 349 349 349 348 349 349 349 348 348 349 350 349 347 346 346 345 346 345 344 343 342 342 344 342 340 341 340 340 339 338 338 336 333 332 330 324 324 325 325
337 337 338 341 344 347 346 347 348 349 350 349 351 353 353 354 356 357 357 360 360 360 360 361 361 362 362 361 360 359 358 357 355 353 352 351 350 350 350 350 349 350 351 351 350 349 349 347 348 347 348 347 348 348 348 347 349 347 347 346 345 346 345 345 344 344 342 342 341 342 342 339 341 341 341 341 340 338 338 337 332 329 323 319 322
337 337 338 342 344 346 346 347 348 349 349 350 352 354 354 354 355 357 358 360 360 361 361 362 362 361 360 360 359 358 357 355 352 351 349 350 351 350 349 349 350 351 349 351 350 351 350 347 347 346 348 348 348 348 347 347 348 347 346 345 344 344 345 343 343 343 343 342 341 341 341 341 342 343 343 342 341 340 339 338 336 331 329 322 320
338 340 342 343 343 345 345 347 348 349 350 351 354 355 355 356 356 356 358 358 360 360 360 361 361 360 359 358 358 357 356 355 353 351 350 349 350 350 350 349 348 348 349 349 350 350 350 349 348 348 347 347 346 346 347 347 348 346 346 346 345 345 344 345 344 343 342 343 342 342 341 340 342 342 342 345 344 342 339 338 337 335 333 327 325
337 338 340 340 342 344 346 346 347 350 353 354 355 355 356 357 357 356 357 358 359 360 361 361 361 360 358 357 356 355 355 354 353 352 350 348 347 347 347 348 348 350 350 350 349 348 348 348 349 347 348 347 347 346 348 347 348 345 345 344 345 347 345 343 344 344 342 342 342 340 342 341 342 341 342 345 346 344 340 340 338 337 334 332 330
336 337 339 340 341 343 344 346 346 349 352 353 353 353 352 354 356 357 358 360 360 360 360 359 360 359 357 356 355 355 354 353 352 350 347 347 348 347 347 347 348 348 347 349 348 346 346 345 344 344 344 344 346 345 346 346 347 345 344 343 343 346 344 342 341 343 342 343 342 340 341 340 341 341 341 341 344 345 343 341 338 337 336 335 333
336 337 339 340 341 342 344 346 347 349 351 351 350 351 352 353 354 356 357 358 359 359 359 359 359 358 357 354 353 353 352 351 349 349 348 348 348 349 348 348 350 348 349 347 348 347 346 345 344 345 345 345 346 345 347 347 346 345 346 345 344 346 344 342 343 343 344 344 342 341 341 341 342 341 339 339 338 339 339 338 338 337 334 334 332
337 338 339 339 341 343 344 346 348 349 349 349 350 351 352 353 354 355 355 356 355 358 359 359 358 357 356 355 353 352 350 349 347 347 348 348 348 348 349 349 348 349 350 347 347 346 347 347 344 347 348 347 348 348 346 347 345 344 343 344 344 345 344 343 344 343 342 343 343 341 341 341 342 341 340 338 338 336 336 335 335 335 333 333 335
335 337 338 339 342 343 345 348 349 349 350 350 350 351 352 353 354 355 355 355 356 358 360 359 357 355 355 354 353 350 348 345 344 344 343 344 345 347 348 347 346 346 348 347 346 346 347 348 346 347 348 348 349 348 348 347 345 345 343 342 342 343 342 341 340 341 341 342 342 341 340 340 341 340 340 339 338 338 337 336 336 336 335 334 334
337 338 339 341 343 346 349 349 350 350 351 351 351 352 352 353 354 354 355 356 357 358 358 358 356 354 353 352 349 345 343 342 340 341 340 341 341 344 346 346 345 344 344 346 346 346 346 346 345 345 346 347 347 347 346 347 346 345 344 343 344 344 343 342 341 341 340 341 340 339 339 339 340 339 339 338 338 338 337 336 336 336 336 335 335
336 338 340 342 342 345 348 349 350 351 351 352 352 352 352 353 354 354 355 356 358 359 357 356 355 350 350 349 344 343 340 339 338 338 339 339 339 340 342 342 343 342 343 343 343 344 345 344 342 343 345 345 345 346 346 345 345 344 344 343 343 343 343 343 343 342 341 341 340 339 338 339 340 338 337 336 337 338 337 336 335 335 335 335 334
337 339 341 340 344 346 348 349 350 350 350 353 353 352 352 353 355 356 355 356 357 358 356 355 353 348 346 341 340 338 336 336 337 337 338 339 339 341 340 340 341 340 340 340 342 342 342 343 343 343 345 345 346 346 346 344 343 344 344 343 342 343 342 343 343 343 342 342 341 340 340 340 339 338 336 336 337 337 337 336 336 335 335 335 334
335 339 340 344 345 345 346 349 349 349 351 351 351 351 352 354 355 355 356 357 358 358 356 354 349 344 342 338 337 336 336 336 337 338 338 338 338 338 338 337 339 338 338 337 339 341 342 342 343 342 342 344 344 344 345 345 344 344 344 343 342 343 343 343 343 342 342 342 341 341 342 341 340 340 338 337 337 337 336 336 336 336 336 335 333
338 338 339 340 343 345 346 347 348 348 350 350 351 351 352 354 354 355 356 356 357 357 354 351 345 342 339 338 339 339 338 339 340 341 340 338 337 338 338 339 340 338 336 337 338 339 340 341 342 342 343 344 345 345 345 345 345 345 344 344 344 344 343 343 343 343 342 341 341 340 340 341 342 342 341 341 339 337 337 336 336 337 336 335 333
333 337 340 341 341 344 345 346 347 348 348 349 349 351 353 355 354 356 356 356 358 356 353 349 346 344 342 341 342 343 342 343 342 343 342 340 337 337 339 339 339 338 338 338 339 339 340 340 341 342 343 344 344 344 345 345 345 345 345 344 345 344 343 342 342 340 341 342 341 340 341 341 343 341 335 334 336 334 337 336 337 338 337 335 333
332 335 337 341 342 344 345 346 347 347 348 348 349 351 351 351 352 355 356 356 357 355 352 349 346 345 343 342 343 344 344 342 341 339 338 337 336 337 339 339 339 339 340 340 340 340 339 339 340 341 343 344 343 344 338 331 333 344 346 344 343 343 342 341 340 339 338 340 340 340 341 339 334 333 331 327 322 321 322 332 336 338 337 336 332
334 337 338 341 343 344 345 345 346 347 348 348 350 350 351 349 351 352 355 356 356 354 351 348 345 344 343 342 343 343 340 337 336 336 336 336 336 339 340 340 340 340 339 340 340 338 337 338 339 339 341 341 342 342 331 326 327 329 340 343 342 342 342 341 340 339 338 337 338 342 343 342 338 333 334 328 325 322 321 319 319 322 328 336 332
333 336 338 340 341 343 343 344 345 347 349 349 350 350 351 349 351 352 354 355 354 353 350 347 344 344 342 342 343 343 341 339 338 337 338 339 339 340 341 340 340 340 340 339 338 338 338 338 337 338 338 340 341 334 325 324 325 326 329 340 340 339 339 339 339 338 339 339 338 339 341 343 342 341 341 341 335 327 323 321 320 318 318 318 321
336 336 337 338 339 341 344 345 346 346 347 349 351 350 350 352 353 355 355 353 352 350 348 346 344 343 343 343 344 343 342 343 342 342 342 341 341 340 341 340 340 342 341 337 336 336 336 337 337 338 338 339 340 331 323 322 323 323 324 330 339 340 339 338 339 339 339 340 340 340 340 342 342 336 335 338 340 340 329 322 321 321 320 318 318
334 336 336 339 342 343 344 346 348 348 347 349 351 351 353 354 354 355 353 352 351 349 347 345 343 343 344 344 344 343 343 343 342 342 342 341 340 340 341 341 342 343 341 339 337 336 337 338 338 338 339 340 341 332 322 320 320 320 322 326 337 339 340 339 339 340 340 340 340 340 340 339 341 342 340 339 339 339 339 339 337 337 337 333 321
335 337 337 341 343 344 345 346 344 344 348 349 350 352 352 352 353 352 353 351 349 347 346 344 343 343 343 343 344 343 342 340 338 339 340 340 340 341 342 343 343 342 341 340 339 339 339 339 339 339 340 340 342 327 321 319 317 317 319 323 335 338 338 340 340 341 341 341 341 341 340 339 340 342 341 339 338 338 338 336 336 335 335 335 336
336 339 341 342 341 342 343 345 347 346 346 347 349 350 349 351 352 351 351 350 348 347 346 344 342 342 342 344 344 343 341 339 337 337 338 338 339 340 341 344 344 343 342 341 340 339 339 339 340 340 339 339 340 325 320 319 317 317 319 330 336 337 337 338 339 340 341 342 342 341 340 338 338 338 334 325 328 336 336 334 333 333 333 334 334
340 340 342 345 345 345 346 348 347 348 349 348 350 350 351 351 350 350 351 348 347 346 345 344 343 342 343 343 343 341 340 339 338 338 339 339 340 341 343 344 342 342 340 339 339 339 340 339 339 340 340 340 341 331 318 316 316 317 320 333 336 337 338 338 339 340 340 341 340 339 338 337 335 335 329 322 320 323 332 331 331 331 332 331 330
339 344 341 344 346 348 350 348 349 350 351 352 351 351 352 350 349 350 349 347 346 345 346 345 344 344 344 343 343 341 340 338 337 336 337 339 341 343 343 344 342 341 340 340 340 340 341 341 339 340 339 340 340 333 319 314 314 316 322 334 337 338 338 338 335 334 335 334 334 331 329 332 333 335 325 318 318 322 326 328 329 329 328 327 328
341 342 345 346 348 348 347 350 351 350 351 353 353 352 350 350 350 348 348 347 346 347 346 345 345 345 345 344 343 342 339 337 336 336 337 339 340 342 343 343 341 342 342 343 341 341 340 342 341 341 335 337 339 334 320 316 314 314 323 334 335 336 335 335 334 333 334 334 334 330 327 327 330 330 320 316 315 320 328 330 330 328 326 326 327
346 347 350 352 351 349 349 349 351 351 350 352 352 351 350 350 349 349 348 347 347 348 348 348 347 346 346 344 343 343 341 340 339 338 339 341 343 343 342 341 341 341 341 342 342 341 340 341 341 340 339 338 338 340 338 315 312 312 316 334 336 334 332 333 333 332 333 334 333 333 329 321 318 318 315 311 309 309 325 329 329 326 324 324 328
344 346 349 351 353 354 352 351 352 350 349 351 351 351 350 350 350 349 348 349 351 351 349 348 347 346 345 344 343 341 339 339 339 338 340 341 342 341 341 342 341 341 342 342 341 341 340 340 341 340 339 339 340 341 341 321 313 311 313 319 336 335 334 333 333 332 333 332 333 333 332 323 314 312 310 306 304 305 309 324 326 324 325 326 320
347 348 348 347 346 346 345 344 347 348 349 351 352 351 349 348 348 348 350 352 352 351 349 348 346 345 344 343 342 341 340 338 339 339 339 340 342 342 342 342 341 341 340 339 340 340 340 339 341 340 341 341 341 336 340 327 316 310 310 313 331 335 334 334 333 333 333 333 333 332 335 323 311 309 305 302 301 303 306 317 322 311 309 310 319
345 344 345 345 344 343 342 342 343 345 347 349 351 349 347 346 346 348 349 349 349 349 348 347 346 344 343 343 342 342 340 340 340 340 339 339 342 342 342 342 340 339 338 337 338 338 338 338 340 340 339 339 341 340 327 334 322 312 310 309 313 323 321 331 331 331 332 332 333 333 331 314 307 304 302 301 300 302 304 313 306 304 306 307 310
341 342 343 344 343 342 340 341 341 342 344 347 349 347 346 345 346 346 345 345 346 347 347 345 344 344 343 343 342 340 341 342 341 341 341 341 341 342 342 341 339 336 336 337 338 338 338 338 338 338 337 338 339 339 331 325 329 318 309 306 306 307 312 327 331 331 332 330 332 332 326 305 301 298 299 300 302 303 313 305 302 303 306 308 315
345 345 346 347 346 344 341 340 340 341 342 344 347 347 344 344 343 342 343 343 343 344 344 343 343 343 343 342 342 341 341 343 343 341 340 340 340 339 337 338 338 338 336 336 338 338 337 337 336 336 337 335 334 334 335 330 323 322 311 306 305 306 306 307 322 330 332 331 317 305 300 301 302 299 300 302 304 304 302 303 304 305 308 317 319
345 345 345 345 344 344 343 339 338 338 338 339 342 345 344 343 341 342 342 342 342 342 341 340 341 342 342 342 342 341 341 342 341 341 340 341 338 338 336 337 337 337 338 337 338 336 334 334 334 334 333 332 331 332 334 334 329 327 319 310 308 308 309 310 313 322 312 308 307 305 303 303 304 308 316 321 321 316 306 307 307 308 321 321 320
342 343 344 345 346 344 343 342 338 338 339 339 340 341 342 341 340 340 341 342 342 341 340 339 340 340 341 341 340 339 340 342 340 340 337 335 337 338 335 336 336 336 335 335 334 333 332 332 332 330 330 331 333 334 334 333 333 331 331 326 319 319 312 311 315 321 317 320 320 318 319 312 313 314 316 314 314 311 315 315 317 318 318 318 318
342 343 345 346 347 347 345 344 341 339 339 339 339 339 338 337 337 338 339 340 340 340 340 338 338 338 337 338 338 338 338 339 339 338 338 338 338 337 336 335 335 334 333 332 332 333 331 331 330 331 332 335 335 334 332 330 330 330 330 329 327 326 326 327 327 329 328 325 321 312 313 321 322 321 320 321 321 322 320 316 315 314 315 315 312
342 343 345 347 347 346 345 343 341 339 338 337 335 334 335 337 336 337 339 338 337 338 338 337 337 337 337 338 338 338 338 337 335 331 325 325 332 335 335 331 328 332 335 334 332 329 330 331 335 334 333 332 333 332 329 312 325 313 323 327 327 327 328 329 316 309 322 322 323 323 322 320 320 319 319 319 318 317 317 316 315 314 314 313 313
339 340 341 342 342 344 342 340 339 338 338 336 334 334 335 335 336 337 338 337 336 336 336 335 336 336 336 336 336 336 338 335 332 327 319 312 302 297 307 325 318 308 302 299 302 329 333 332 331 331 329 331 330 325 303 297 297 299 299 302 305 303 303 313 305 304 316 323 321 321 320 320 319 319 318 317 316 316 317 316 315 308 310 311 310
339 339 339 340 340 341 341 340 339 338 337 336 336 336 335 335 336 337 336 338 338 337 336 335 335 335 335 336 338 337 335 334 332 328 323 318 313 307 294 296 303 305 298 293 293 295 298 304 324 328 313 300 301 296 294 295 296 296 297 298 297 297 296 296 299 314 317 320 321 319 319 319 319 318 317 316 316 316 315 313 312 310 309 308 308
Wind_Speed
13 13 14 14 14 13 12 11 11 11 11 11 11 12 12 11 11 12 11 11 9 8 8 9 10 10 9 10 7 6 5 5 5 5 5 5 4 3 3 3 4 4 4 4 3 3 3 3 3 4 3 2 1 1 1 2 2 3 3 2 4 3 2 2 3 4 5 4 2 2 1 2 4 4 5 3 3 2 2 2 3 3 4 4 4
11 10 12 13 12 14 13 11 11 12 11 12 13 13 12 12 12 11 10 12 12 10 8 9 10 9 8 8 6 6 5 5 6 5 6 4 4 4 3 3 3 4 3 3 4 4 4 4 4 4 3 2 1 0 0 1 2 3 3 2 1 3 2 3 3 4 2 5 5 4 2 3 3 4 4 4 4 3 3 4 3 4 4 4 3
12 14 14 13 15 15 12 12 12 14 13 13 13 12 12 12 11 11 10 11 11 10 9 9 8 7 7 5 6 5 5 5 6 5 4 4 3 4 4 4 4 4 4 5 5 5 5 5 4 3 3 2 2 2 1 1 1 2 2 2 2 1 1 1 3 4 4 5 3 3 2 1 4 3 2 3 3 3 3 5 5 5 6 4 3
16 16 16 15 15 14 13 13 13 12 12 12 12 13 11 11 11 11 11 11 9 10 10 9 8 7 7 5 4 5 5 4 3 2 3 4 4 4 4 4 5 4 6 7 6 5 5 5 3 3 3 2 1 0 0 0 1 1 1 1 1 2 1 1 2 4 3 4 2 3 3 2 1 3 5 1 1 3 3 5 5 5 5 5 4
15 16 16 15 15 16 15 14 13 13 13 12 12 12 9 13 12 12 11 11 10 10 11 9 7 8 7 7 5 3 1 3 4 4 5 5 5 5 5 5 5 5 6 7 5 5 5 4 3 3 3 2 1 0 0 1 1 0 0 0 1 2 1 1 1 2 3 2 2 3 1 0 3 4 6 3 0 1 3 4 5 6 5 5 4
16 17 17 17 16 15 14 14 14 13 13 13 13 13 12 11 11 11 10 9 10 11 11 10 9 9 10 9 9 8 8 8 9 9 6 7 8 7 7 6 6 6 5 5 5 4 4 4 4 4 2 2 2 1 0 1 1 2 1 1 2 1 1 1 0 1 2 2 2 2 1 2 3 5 4 1 3 2 3 2 5 6 5 5 5
16 16 15 16 16 15 16 15 16 16 15 13 12 12 13 12 11 12 10 10 10 10 12 10 10 11 11 10 9 9 10 9 8 6 6 5 5 5 5 6 8 7 6 5 5 4 5 4 4 4 3 2 2 2 1 1 1 2 2 3 1 1 2 1 0 1 1 1 1 1 2 1 2 3 3 4 3 1 1 2 5 6 5 5 6
16 17 17 16 16 17 18 17 16 17 15 13 13 12 13 13 12 12 10 10 9 9 11 10 10 11 11 10 9 9 9 9 7 5 4 4 5 6 5 6 7 5 6 5 5 5 4 4 4 4 4 3 2 2 2 2 2 2 3 2 2 2 2 1 0 1 2 0 1 1 1 1 2 2 2 2 3 5 1 3 4 5 3 5 6
18 16 18 18 17 17 16 15 17 17 14 13 13 12 12 13 13 12 11 10 9 11 11 12 11 10 10 10 9 8 8 7 5 5 5 5 6 4 5 5 5 4 4 5 5 5 5 4 5 5 4 4 3 3 3 3 4 4 4 4 4 3 2 1 1 1 1 0 1 1 1 1 1 1 1 1 2 3 4 3 3 3 2 4 4
17 18 18 18 18 18 18 17 15 15 14 13 13 12 12 11 12 12 13 10 10 11 11 12 13 10 10 10 11 9 6 4 5 6 5 5 6 5 5 5 5 5 4 4 5 5 5 5 5 6 6 5 4 4 4 4 4 4 4 4 3 3 2 2 2 1 1 1 2 1 1 1 1 1 1 1 2 3 4 4 4 4 2 2 2
15 17 17 17 17 17 16 16 16 14 13 13 14 13 13 13 13 14 14 11 11 12 12 13 12 11 11 11 12 10 9 7 6 6 5 5 5 6 5 5 5 6 6 5 6 6 5 5 6 6 6 5 4 4 4 5 5 5 4 3 4 4 3 3 3 2 2 3 3 2 2 1 2 2 1 1 2 2 4 3 2 3 4 3 1
16 16 16 17 14 14 13 15 14 14 14 14 15 13 13 13 13 15 14 13 11 11 12 12 12 12 11 11 12 10 9 7 8 8 8 8 7 7 5 5 5 5 5 5 6 6 5 5 6 6 6 5 5 4 4 4 4 4 4 3 3 3 3 3 3 3 4 3 3 3 3 2 2 2 2 2 2 3 3 5 4 2 2 2 2
16 15 15 15 14 15 16 15 13 14 14 16 16 15 14 13 15 15 15 14 12 12 13 13 12 12 11 11 11 9 9 9 9 8 8 8 7 7 7 7 6 6 6 6 7 7 6 5 6 6 5 5 5 5 5 5 3 4 4 4 3 4 3 3 3 4 4 4 3 3 3 3 3 2 2 3 3 3 4 5 5 2 3 3 1
17 17 17 15 14 15 16 15 15 14 16 16 16 14 13 12 14 16 15 14 13 13 13 13 13 12 12 11 10 9 9 9 8 8 8 7 7 8 8 8 7 8 8 8 7 8 6 6 6 6 6 5 5 5 5 5 5 4 4 4 4 3 3 4 4 4 4 4 3 3 4 4 4 3 3 3 3 4 4 5 6 5 4 5 2
14 14 16 16 15 16 16 15 15 15 17 17 15 14 12 13 14 16 15 14 14 14 13 14 12 13 12 11 10 9 9 9 8 7 8 8 7 8 7 7 7 7 7 7 7 7 7 6 6 6 5 5 5 5 5 5 5 4 4 4 4 3 3 3 4 4 4 5 5 4 3 4 4 3 4 4 4 4 5 5 5 7 5 4 4
16 17 16 16 16 16 15 15 15 15 17 15 16 14 14 15 15 17 17 15 14 14 13 14 13 11 13 13 12 11 9 8 7 6 6 8 8 8 7 7 6 6 6 6 7 7 6 6 6 6 6 6 6 6 5 5 5 4 4 4 5 3 3 4 4 4 5 5 5 4 4 5 4 4 4 4 4 4 5 5 5 5 6 7 5
16 16 16 17 16 16 16 16 15 16 15 16 16 17 18 17 16 16 16 14 15 15 14 13 13 13 13 13 12 11 11 11 9 10 10 8 7 7 7 7 6 6 6 6 6 6 6 7 7 7 6 6 6 6 5 5 4 4 4 4 5 4 4 5 4 4 5 5 5 6 5 5 5 4 5 5 4 5 5 5 5 6 6 7 6
19 19 17 18 19 20 19 17 19 18 18 18 18 17 16 15 16 17 15 16 15 14 14 14 14 14 13 13 12 11 10 10 9 9 8 7 6 5 5 5 6 6 6 6 6 7 7 7 7 6 6 6 6 6 5 4 4 4 4 4 5 4 5 5 5 5 6 5 6 6 6 6 5 5 5 5 5 5 6 6 6 7 6 7 8
16 18 15 16 16 17 18 19 20 18 17 17 17 16 13 14 15 16 18 18 17 13 12 11 12 10 10 12 12 11 9 9 8 8 7 7 8 7 7 7 7 7 6 7 7 8 8 7 7 7 6 6 6 6 5 4 4 4 4 4 4 4 5 6 5 5 6 6 6 7 6 6 6 6 6 4 4 5 6 7 7 7 7 8 9
17 18 18 19 19 21 21 20 20 19 17 16 17 16 18 18 16 16 16 14 14 13 13 13 13 11 10 10 11 11 11 10 9 9 8 9 9 8 8 8 8 7 8 8 8 8 8 8 8 7 7 7 6 6 5 5 4 5 4 5 5 5 5 6 6 5 5 6 8 8 8 7 6 6 6 6 5 5 6 7 8 8 8 9 9
17 17 17 19 20 20 20 20 19 18 17 17 17 18 18 17 18 18 17 17 16 15 14 13 12 12 12 13 12 10 10 9 9 10 9 9 8 8 7 7 6 8 8 8 8 8 8 7 7 7 7 6 6 6 5 5 5 5 5 5 5 5 6 6 6 7 6 7 8 9 9 9 7 7 6 6 6 6 7 7 8 8 9 8 8
17 17 18 19 19 19 19 17 15 15 16 17 16 16 18 17 17 17 18 16 18 15 14 14 12 12 15 14 13 11 10 8 9 7 7 7 7 7 7 7 8 8 7 8 7 7 6 6 7 7 7 7 7 7 6 5 6 6 7 5 6 6 7 7 6 7 7 6 7 9 10 9 8 8 7 7 7 6 6 7 7 8 9 9 8
17 17 17 17 17 17 17 17 18 17 16 18 17 18 18 19 18 17 17 19 19 17 14 12 12 12 14 12 10 9 8 9 8 6 7 7 7 6 6 7 7 7 6 6 7 7 6 6 7 6 6 6 7 6 6 6 6 7 7 8 7 8 8 8 8 8 8 7 8 8 9 9 7 7 7 7 6 6 6 6 8 7 8 9 8
14 13 13 12 12 12 11 13 13 13 14 17 16 16 16 16 16 16 18 19 18 15 14 13 12 12 10 8 8 11 9 6 7 7 10 10 8 7 6 7 6 6 6 6 6 6 6 7 7 7 7 7 7 6 6 6 7 7 8 9 9 9 8 9 9 9 8 7 7 8 8 8 8 8 7 6 5 5 5 5 7 7 8 9 8
13 13 12 11 12 14 13 13 14 14 15 14 15 15 15 15 16 17 17 18 16 14 13 13 13 11 10 9 15 9 8 10 11 9 10 9 8 7 6 7 6 6 6 6 6 6 6 7 8 9 8 7 8 7 7 7 7 7 8 8 9 9 9 9 9 9 8 8 8 8 8 8 7 8 7 6 5 6 5 5 6 6 7 7 7
12 11 11 15 14 12 11 12 12 13 13 12 12 13 14 14 16 16 15 15 15 13 13 12 11 12 15 16 14 14 15 16 14 10 8 8 6 6 6 7 7 8 7 7 7 6 7 8 8 8 8 7 7 7 7 8 8 8 7 8 8 9 9 9 9 9 8 8 8 8 8 8 8 8 8 7 6 6 5 6 7 7 7 7 8
13 12 10 7 9 14 15 13 12 13 13 12 14 15 15 14 15 16 14 13 13 11 11 11 13 16 16 19 21 19 18 16 12 10 8 6 5 7 7 8 8 8 8 8 8 8 7 7 7 6 7 7 7 7 7 7 8 8 8 8 9 9 8 8 8 9 8 8 8 8 8 8 8 8 9 9 7 6 5 7 7 7 7 7 8
9 10 13 15 14 12 13 14 13 12 12 12 13 13 14 13 14 13 13 12 10 10 11 13 15 15 17 17 16 18 17 15 11 12 11 9 8 9 9 8 6 8 9 9 9 9 8 7 7 7 7 6 7 7 8 8 8 8 8 8 8 7 7 7 7 7 8 8 9 9 9 8 8 9 9 8 8 7 6 7 6 6 6 7 8
13 14 13 13 14 13 14 14 13 13 14 14 12 12 11 10 12 12 13 13 11 12 13 15 15 13 12 14 14 14 12 11 13 11 9 10 12 11 9 8 7 7 7 9 8 8 6 7 7 7 8 7 7 7 7 7 7 8 8 8 7 7 7 7 7 8 8 8 8 8 8 8 8 9 9 7 7 5 5 6 6 6 6 7 8
16 15 15 14 14 13 14 14 13 14 14 14 12 12 13 13 14 13 12 11 11 13 14 14 13 13 14 15 12 7 7 8 8 11 14 15 14 14 11 10 9 9 8 7 7 6 7 8 8 8 8 7 6 6 8 12 10 7 8 6 6 6 7 7 7 8 9 8 8 8 8 9 9 9 9 11 12 12 11 9 7 6 7 7 8
12 12 13 13 13 13 13 13 14 14 15 14 13 12 12 13 13 13 13 13 13 13 13 13 14 14 14 13 11 10 12 13 16 15 15 16 14 10 9 9 8 8 8 7 7 8 9 9 9 8 8 7 7 7 11 12 14 14 8 7 6 6 7 7 8 8 9 9 8 8 8 8 9 10 11 14 13 13 13 14 14 12 10 9 9
12 11 11 12 13 14 14 15 16 15 14 13 11 11 11 13 12 12 12 11 12 12 12 13 13 13 14 14 13 15 17 19 16 15 14 11 9 8 8 8 8 9 7 6 8 8 7 7 7 8 9 8 8 9 12 13 13 14 11 7 6 6 6 7 8 9 8 8 8 8 7 6 7 9 8 8 11 13 14 14 14 14 14 13 11
12 13 13 14 16 16 16 15 14 13 13 14 12 11 12 11 10 10 10 11 12 12 11 12 15 17 16 15 15 16 16 14 12 12 9 8 9 9 10 9 10 10 7 7 7 7 8 7 7 8 9 9 8 9 13 13 14 13 13 10 6 7 8 9 9 9 9 8 8 8 7 6 6 10 9 9 8 8 10 13 13 12 12 13 13
11 13 15 14 11 9 11 12 11 12 11 10 11 9 8 9 10 10 11 11 12 11 12 14 15 17 17 15 15 15 14 15 14 13 10 10 11 12 11 10 9 7 8 8 8 10 8 8 8 8 8 8 9 9 13 14 14 13 12 10 8 8 9 9 10 9 8 9 9 9 8 7 8 7 6 7 7 8 7 7 8 8 9 11 14
13 12 11 8 8 8 8 7 7 9 9 9 8 8 8 9 10 12 12 12 11 13 13 14 17 17 18 18 16 14 13 16 14 10 7 8 10 10 10 9 9 9 9 9 8 8 7 7 9 8 8 8 8 11 13 13 12 12 13 10 8 7 8 8 8 9 10 10 9 8 9 9 8 6 4 5 6 7 7 7 8 8 8 9 8
12 14 12 12 12 11 11 9 8 8 8 9 10 10 11 11 11 12 12 12 12 13 13 13 16 16 19 18 17 15 15 11 10 11 10 10 9 9 9 7 7 7 6 5 6 7 8 8 8 7 7 9 10 12 12 12 13 13 12 7 7 7 8 8 8 9 9 8 7 7 7 7 6 6 3 4 6 6 7 8 8 8 8 8 8
3 7 9 9 9 9 10 10 10 10 10 10 10 11 11 11 12 12 12 12 13 13 13 15 15 19 18 18 16 16 13 12 13 12 13 13 13 11 9 6 7 7 7 7 8 7 7 7 8 8 9 10 10 10 12 12 12 13 7 5 6 7 7 8 8 6 6 6 5 5 5 5 6 6 7 5 7 5 7 8 7 8 7 8 8
9 8 10 11 10 10 10 10 11 9 9 9 10 11 11 11 11 11 13 13 13 14 14 14 15 16 17 18 15 13 11 14 13 13 14 13 12 9 9 7 9 8 8 8 7 6 7 8 9 10 10 11 11 10 12 12 12 10 8 7 6 6 7 6 4 5 4 5 6 6 2 7 9 8 6 8 9 7 6 7 8 8 8 8 8
12 13 12 11 9 9 10 9 10 10 8 9 10 12 11 11 11 12 12 13 13 13 13 14 14 16 18 18 14 12 13 14 13 14 13 12 11 10 8 7 8 7 7 5 5 7 8 8 9 10 10 11 11 10 10 11 10 8 7 6 6 7 6 6 3 4 6 7 6 8 10 15 12 9 7 9 10 9 7 7 6 6 7 8 7
8 8 8 10 11 11 9 9 9 9 9 10 11 11 11 11 11 11 12 12 13 13 12 11 12 14 14 16 14 13 13 12 13 12 12 11 8 7 8 8 7 6 5 5 5 6 8 8 7 9 9 9 10 9 7 10 9 8 10 7 6 6 6 6 8 9 7 8 8 8 10 14 11 10 6 7 8 9 6 5 4 5 6 8 8
11 10 10 9 8 7 9 9 8 8 8 9 9 9 9 8 9 9 12 12 9 9 10 10 12 15 16 16 12 13 12 12 12 12 11 10 9 9 8 7 6 4 4 5 7 8 9 9 8 7 8 8 7 8 5 7 8 10 10 9 6 7 7 7 8 9 8 7 7 7 7 7 10 9 7 8 8 8 7 6 5 6 7 5 6
11 10 9 9 10 11 11 10 7 6 6 7 8 8 8 8 8 10 9 6 7 8 9 10 14 14 15 14 14 12 10 9 9 9 10 10 8 7 6 6 5 5 5 6 6 7 8 7 6 5 5 5 3 4 7 3 8 9 10 11 6 7 6 6 7 6 6 7 7 6 5 6 9 8 7 5 6 8 8 6 7 6 7 6 7
10 10 8 10 11 10 10 9 6 6 5 6 7 8 7 7 7 6 4 5 6 7 8 10 12 13 14 16 16 14 11 8 10 13 12 10 8 8 7 6 5 3 4 6 7 6 6 6 6 5 5 5 4 4 5 6 6 7 8 9 9 6 5 6 7 8 7 6 6 5 2 8 8 7 7 8 8 7 6 6 5 4 4 3 4
11 10 9 11 12 10 9 8 6 5 5 5 7 7 6 7 6 4 5 6 7 8 9 11 12 13 13 13 14 15 12 10 12 11 10 9 9 7 6 5 5 5 5 5 5 5 5 6 6 6 6 6 5 4 4 6 5 5 8 9 9 10 8 7 7 8 7 7 6 5 3 8 6 7 7 5 3 4 4 1 3 5 6 6 5
11 11 10 10 10 10 9 9 6 6 4 3 2 5 7 7 5 5 6 6 7 8 9 11 12 12 12 12 13 12 12 10 11 10 8 7 6 5 5 4 6 5 5 5 5 4 5 5 7 7 6 4 2 3 3 4 4 5 8 9 8 8 9 8 6 6 8 5 4 7 8 6 4 4 5 4 4 5 5 5 5 6 8 4 5
11 10 9 9 9 10 10 10 8 6 5 3 3 3 6 6 6 6 6 6 7 8 9 11 11 11 11 11 12 12 12 12 10 7 7 3 2 4 6 5 4 4 5 6 5 5 6 6 6 6 4 4 4 3 3 2 6 6 6 7 7 8 7 8 9 7 6 7 5 5 5 6 7 4 3 3 3 3 6 8 7 10 5 4 4
10 7 6 7 8 7 8 8 8 5 4 4 5 4 4 5 6 6 6 7 7 8 8 9 10 10 10 10 12 10 9 8 10 7 7 7 7 2 0 2 3 3 5 5 3 4 4 5 7 5 4 4 3 2 2 2 1 1 1 2 3 4 6 6 6 6 6 5 5 3 3 3 3 3 2 6 8 8 7 6 4 3 1 1 2
8 7 5 6 8 7 7 7 6 4 4 4 4 4 6 7 7 7 7 7 7 8 8 9 10 9 9 10 10 11 10 8 8 7 6 7 6 7 8 7 7 6 5 5 6 7 8 8 7 5 4 2 2 2 1 1 1 2 1 2 2 2 3 3 3 3 2 2 3 7 6 4 4 4 4 4 4 3 2 3 2 1 1 0 1
10 9 8 7 6 7 6 6 4 3 3 3 4 4 5 7 7 8 8 8 8 8 7 8 9 8 8 7 8 8 8 8 7 6 4 3 2 7 7 5 3 2 4 4 6 4 3 4 3 3 2 1 0 1 2 1 2 2 3 2 2 2 2 3 4 5 3 3 3 4 4 4 4 3 2 2 2 2 2 2 2 1 1 1 1
7 6 6 6 6 4 4 4 3 3 4 4 5 5 4 5 5 7 8 8 8 7 7 7 7 6 7 7 7 8 6 8 8 8 7 6 9 10 7 4 4 4 7 7 5 3 3 3 3 1 2 1 0 3 3 3 3 3 3 4 4 5 5 4 5 1 2 2 3 3 4 3 3 2 2 2 3 3 3 2 2 1 2 1 1
5 5 5 4 3 2 3 4 4 4 4 5 5 5 4 4 5 6 7 7 8 7 6 6 6 7 5 5 4 5 6 6 6 9 7 8 6 8 14 13 9 5 4 4 3 1 2 4 3 3 3 6 5 5 5 3 2 2 2 3 3 4 5 7 6 4 4 4 3 3 3 2 2 2 3 3 2 3 1 1 1 1 1 1 2
Wind_Direction
208 209 206 209 209 206 206 203 204 203 201 197 196 198 197 196 194 201 201 202 201 197 200 205 214 217 223 226 220 207 212 217 225 227 229 232 219 220 207 205 193 195 191 187 188 187 197 176 176 189 203 211 225 274 9 339 318 304 292 300 326 325 324 335 354 331 320 317 319 309 31 100 119 107 74 78 65 58 55 59 64 75 70 64 55
213 212 211 212 212 210 206 206 202 200 201 199 201 200 198 197 200 200 196 206 210 202 196 205 213 212 208 214 215 215 212 215 225 220 227 219 204 204 207 202 192 199 182 172 182 189 179 181 186 197 186 191 189 134 195 294 289 291 304 309 43 346 344 348 7 337 345 346 340 346 15 124 122 141 57 59 62 70 74 69 53 50 48 51 48
208 215 212 214 214 212 206 207 206 207 202 200 203 201 198 200 203 200 197 198 204 202 201 202 203 204 202 207 205 215 219 233 243 245 224 225 193 192 195 186 189 195 186 181 183 189 189 187 193 191 182 172 190 191 195 251 288 340 351 339 350 56 325 339 349 9 340 344 327 289 30 348 139 155 60 38 67 73 71 62 48 42 32 48 56
205 210 212 211 213 212 209 208 207 205 203 200 200 203 201 203 202 200 201 200 199 199 203 208 203 201 207 222 213 227 231 203 212 204 207 203 195 192 196 189 189 192 190 190 190 186 188 194 186 183 173 186 218 266 222 154 46 21 5 35 358 309 23 20 14 19 8 351 356 353 352 329 133 78 348 51 133 79 74 72 60 36 43 40 51
204 207 210 208 208 210 207 208 206 204 203 200 199 201 202 203 202 199 199 199 200 197 199 197 194 205 211 221 221 182 181 200 198 211 214 209 217 205 207 197 191 198 187 191 180 172 182 192 191 182 171 171 181 245 307 23 50 37 313 279 303 315 332 9 28 22 18 17 342 325 309 241 34 5 332 118 32 18 116 68 58 44 56 48 42
205 204 205 205 204 205 208 208 207 208 207 205 200 201 201 204 202 199 200 199 200 198 195 194 193 200 204 206 211 215 223 221 220 221 199 212 226 224 211 193 196 196 184 185 183 176 177 186 189 179 177 174 206 230 303 200 198 217 187 247 227 230 303 343 339 80 17 48 6 20 355 345 336 348 330 24 327 88 101 66 68 58 66 62 49
213 213 209 206 206 204 205 205 207 211 211 204 201 202 201 203 203 199 200 200 199 196 191 193 193 207 200 199 200 204 216 222 216 208 204 205 219 201 196 198 205 195 179 179 181 178 177 179 181 189 190 199 203 220 234 241 221 230 190 220 221 187 205 247 303 22 163 85 43 13 330 334 332 328 359 318 343 99 66 49 79 69 78 65 53
208 209 207 207 204 203 204 203 204 209 208 200 199 200 199 202 200 200 201 201 197 191 191 190 194 202 202 203 203 204 205 216 178 192 196 190 198 197 175 184 189 189 176 173 178 177 179 178 184 192 196 199 211 225 237 225 217 215 221 210 203 214 207 239 253 267 299 106 48 318 329 335 341 306 307 330 321 318 14 94 97 68 100 66 62
206 204 207 206 205 204 202 200 204 206 204 198 198 198 199 202 202 200 201 201 198 192 190 194 198 197 199 200 206 208 202 212 170 179 183 184 193 174 178 164 166 168 173 171 173 177 180 189 191 197 200 195 212 226 224 218 216 211 205 204 211 195 209 207 238 245 266 270 254 205 287 291 299 268 267 260 289 307 299 354 9 62 82 71 60
209 210 206 206 205 205 203 203 201 202 201 197 198 199 199 197 200 199 205 202 199 193 194 196 199 199 201 203 204 199 182 169 175 176 179 174 184 173 171 167 167 167 167 172 173 183 189 192 198 203 203 199 208 224 218 218 215 221 218 215 201 207 193 201 222 218 229 226 236 270 262 228 222 204 192 238 258 255 283 306 334 352 21 42 62
205 210 210 209 206 204 198 197 200 198 198 195 198 199 199 197 198 201 205 200 197 195 194 198 198 201 205 206 204 202 180 176 177 175 170 172 180 174 175 175 172 174 176 174 187 186 191 196 204 200 203 196 205 205 215 219 219 221 215 202 203 193 179 185 200 204 222 228 234 243 271 290 320 322 348 314 303 289 295 295 333 360 333 329 102
202 205 210 209 202 201 198 202 197 194 194 195 201 198 197 196 194 200 204 200 196 197 196 201 199 203 207 204 203 200 179 182 188 183 177 180 181 177 178 174 178 175 180 178 186 185 186 193 199 196 194 197 205 210 216 218 227 219 215 208 197 179 165 179 202 210 217 226 231 232 240 250 253 268 295 280 274 301 298 305 306 319 277 255 318
200 203 206 204 195 192 196 199 192 194 197 197 199 199 196 195 194 197 204 198 196 194 197 199 199 203 203 203 204 195 187 189 190 188 176 181 180 181 178 186 178 181 185 189 190 185 186 188 186 190 191 198 211 212 217 217 219 216 219 216 209 198 191 205 209 219 213 224 213 214 231 233 241 235 241 253 265 276 285 298 301 329 283 283 288
199 200 204 203 194 192 194 193 191 196 198 197 197 197 192 192 193 199 204 193 192 194 196 198 200 201 198 197 196 188 191 190 191 190 181 183 179 187 187 188 183 189 185 190 189 186 192 189 186 191 196 199 207 213 219 216 214 219 221 225 222 226 222 223 235 236 220 227 222 206 214 221 232 227 226 244 267 268 274 285 300 295 278 287 278
196 196 200 198 193 192 192 191 192 194 196 196 195 194 189 191 192 198 201 194 191 193 194 197 197 197 195 195 193 188 190 189 192 187 176 182 186 191 190 187 186 188 187 187 182 184 189 186 189 198 199 206 209 211 215 214 213 218 223 229 235 227 225 231 240 237 232 219 215 232 233 232 240 228 227 235 242 256 269 277 275 296 293 280 286
199 202 204 202 194 192 197 196 194 195 194 194 192 190 193 197 196 197 198 192 190 191 195 195 194 192 192 192 194 189 188 187 182 180 180 184 184 191 189 186 188 182 185 182 182 186 188 191 194 206 210 211 209 214 218 214 207 217 224 225 234 210 232 230 244 241 243 239 240 239 242 253 247 244 241 237 235 250 260 264 261 259 281 293 295
197 201 202 196 193 195 196 196 196 195 191 191 192 191 194 194 194 196 198 193 190 191 193 191 190 189 193 193 190 190 190 187 186 185 186 187 188 191 188 188 185 184 181 186 182 184 190 196 199 208 206 210 212 215 219 218 211 219 227 231 241 232 237 247 249 253 258 257 254 246 251 260 258 249 247 241 237 243 251 256 255 259 264 273 287
196 197 195 192 194 193 195 197 196 193 193 193 193 191 193 191 192 194 194 196 196 193 192 190 190 192 190 191 191 188 187 186 182 175 174 178 184 186 183 179 188 188 186 183 186 187 192 194 201 205 208 209 216 220 220 223 220 230 236 246 254 259 257 256 258 261 265 265 263 261 256 260 259 256 251 241 236 241 248 249 250 253 249 260 277
198 203 200 199 199 198 196 196 196 196 193 193 192 188 188 192 195 196 196 199 197 193 191 190 191 191 190 187 184 184 183 180 176 169 165 178 186 187 192 188 185 185 185 183 187 194 196 196 203 208 205 211 216 226 224 229 226 242 243 252 250 249 256 262 261 259 264 263 264 264 259 260 262 264 264 243 231 239 252 254 254 251 249 250 265
194 198 198 197 199 198 196 195 195 194 193 197 194 191 195 196 194 198 201 197 194 190 187 191 194 192 184 179 184 184 180 175 166 164 171 185 187 186 189 187 191 189 192 186 191 198 199 203 207 214 215 217 221 226 228 230 232 243 250 255 255 244 253 260 267 264 265 263 263 263 261 261 260 261 264 262 248 240 247 256 263 256 251 246 259
195 197 196 197 199 199 199 198 197 195 193 195 194 195 199 198 197 197 194 194 196 195 192 197 190 190 182 184 184 182 179 167 162 167 174 184 186 187 189 190 187 198 190 189 194 199 199 202 212 215 218 219 222 228 221 225 231 240 240 249 255 245 249 257 259 266 261 259 262 263 265 265 264 265 270 274 273 270 268 269 269 267 265 261 259
193 194 194 197 196 196 196 194 193 192 193 192 193 196 200 200 201 199 200 200 202 196 195 194 188 184 187 186 183 178 171 162 152 156 179 184 189 191 184 184 199 198 190 193 195 198 199 199 214 215 215 220 225 227 228 221 229 235 242 239 242 241 244 250 253 257 259 256 259 265 267 268 267 270 273 273 275 275 271 270 267 266 270 271 260
199 199 199 197 193 189 186 182 185 187 187 190 194 197 198 200 200 198 198 202 202 199 191 186 183 185 186 179 171 161 134 123 136 157 181 193 202 196 183 194 202 198 188 197 195 198 191 196 210 215 215 220 222 227 227 224 229 232 240 243 241 241 243 248 249 250 252 254 258 262 268 271 271 268 267 269 269 265 265 264 266 267 269 272 270
198 198 195 192 184 173 171 178 181 183 188 191 195 197 198 201 201 200 203 204 202 198 187 181 182 183 166 147 105 73 77 119 152 171 189 197 194 190 186 200 199 193 185 192 197 197 195 196 207 213 215 218 220 222 225 224 227 233 236 240 242 239 239 240 243 247 253 250 256 264 267 268 267 267 268 267 261 257 256 261 265 266 264 269 273
193 190 184 174 178 180 187 187 187 189 192 192 193 194 195 200 200 202 206 204 200 197 186 181 180 157 128 109 87 100 148 183 188 190 194 191 191 183 181 198 199 205 190 186 199 199 197 200 207 211 211 212 219 222 224 227 225 227 234 240 244 244 240 239 238 241 242 248 253 257 266 267 264 263 264 260 254 245 251 259 266 270 267 269 270
187 181 173 187 186 180 181 188 189 190 193 188 189 192 196 199 201 202 205 202 200 195 185 173 162 137 115 104 133 162 177 193 191 184 175 187 177 177 180 195 202 204 197 201 200 198 202 207 208 208 208 209 212 219 223 227 229 227 228 236 241 241 243 241 240 239 243 244 248 253 257 259 260 260 265 264 255 247 252 256 260 264 268 269 269
186 184 183 156 167 187 188 184 186 191 189 190 194 198 201 201 203 203 204 202 198 187 167 150 141 130 135 163 172 173 186 193 177 163 193 191 191 199 196 202 202 204 196 205 209 207 205 211 210 210 217 213 212 219 223 226 228 228 228 232 236 236 237 238 239 240 242 244 248 251 252 251 253 253 258 259 258 254 253 257 255 260 265 267 272
170 173 176 187 186 177 178 182 186 188 186 190 194 197 198 197 196 197 200 196 183 158 139 144 149 157 171 172 168 183 188 182 164 167 172 179 192 206 215 214 188 201 208 208 211 208 210 211 212 214 217 216 219 224 226 228 229 228 228 228 228 230 233 235 237 240 243 248 250 251 251 246 243 247 249 253 251 255 259 259 258 252 253 260 270
184 188 185 176 178 178 178 181 186 185 188 191 192 195 195 192 195 196 196 196 179 152 156 163 163 159 160 168 184 190 176 158 162 168 158 174 191 202 203 203 199 204 209 210 209 207 200 209 213 216 221 220 223 226 224 222 225 225 224 226 222 227 235 242 245 248 245 243 246 247 246 245 237 236 239 249 260 261 256 258 258 244 243 252 265
191 187 184 183 179 173 177 178 180 185 186 188 189 190 192 193 196 193 190 188 159 160 167 167 158 157 165 174 181 155 101 116 166 178 186 194 199 195 188 195 199 207 210 203 201 198 210 215 216 217 218 220 220 223 216 214 220 222 212 216 220 227 234 240 245 248 249 243 242 245 244 238 237 237 237 236 238 240 237 247 256 252 248 247 260
191 179 179 176 171 170 172 177 183 187 189 190 191 190 189 196 196 194 186 181 167 165 165 157 160 166 167 167 158 128 134 175 198 194 194 200 202 196 183 192 194 202 203 190 193 202 209 210 212 215 215 218 222 220 211 210 216 225 227 220 219 222 224 232 237 242 248 250 245 235 242 230 227 230 234 233 236 231 230 235 242 247 251 252 259
188 179 169 165 171 172 177 184 188 189 187 187 186 184 182 194 190 188 183 174 168 166 165 160 161 163 164 161 156 156 171 192 196 193 197 194 190 191 188 192 198 204 200 191 200 208 206 205 209 214 222 225 227 215 205 208 214 217 217 223 223 224 227 231 236 237 241 246 248 247 240 235 235 238 244 235 226 226 230 234 236 239 240 240 243
170 168 176 178 178 182 183 186 185 182 185 191 178 177 188 181 173 171 165 166 167 167 154 156 170 178 170 167 167 171 180 188 196 202 199 173 182 192 197 193 205 207 190 193 200 201 209 207 214 219 227 229 235 202 202 209 213 215 216 222 234 230 233 238 238 236 241 242 246 247 245 235 240 223 230 242 253 246 220 225 236 239 242 235 231
173 177 183 184 178 177 184 182 178 180 182 174 177 173 164 163 163 156 162 165 163 158 158 166 178 184 178 172 170 175 183 190 196 197 193 188 190 199 202 200 202 196 199 206 204 210 212 210 215 225 231 235 235 210 203 209 213 216 219 214 238 237 239 243 243 242 240 242 243 248 248 246 247 234 225 231 242 245 253 238 231 235 242 230 216
173 177 180 170 168 162 150 145 158 166 158 152 154 158 148 155 163 167 167 161 159 159 168 170 184 184 183 182 178 178 182 197 196 190 188 195 198 203 203 204 203 202 203 207 209 211 212 214 222 224 232 238 237 220 211 212 215 220 225 219 238 239 244 247 247 248 246 245 245 246 247 250 257 251 232 231 246 251 250 256 259 262 259 266 265
185 170 165 162 170 166 163 153 138 139 157 167 169 169 168 167 166 168 167 164 162 167 173 173 182 182 186 184 180 179 194 191 186 190 192 198 200 200 202 202 209 213 209 212 217 221 224 226 228 228 235 244 245 219 210 212 218 223 225 227 231 235 241 243 247 246 246 246 248 250 253 259 263 265 277 200 243 263 261 265 263 263 269 270 267
96 144 133 128 129 131 141 145 161 167 162 167 162 162 163 161 167 170 165 165 167 174 177 182 182 190 187 186 179 184 187 191 193 194 198 199 199 196 195 188 203 211 213 217 223 220 224 232 233 226 228 242 250 221 200 212 220 227 218 231 230 233 237 241 245 269 274 261 243 237 227 250 255 248 248 209 198 222 256 261 263 267 271 277 276
126 121 132 144 154 154 152 158 155 155 149 147 151 156 156 162 169 166 168 169 175 181 182 182 187 186 187 190 183 177 177 200 193 198 203 204 199 181 188 184 203 206 212 220 221 226 230 233 233 234 229 234 243 232 203 206 215 218 204 225 235 240 247 248 241 240 236 234 234 179 49 277 247 241 204 177 176 185 234 245 255 265 275 279 285
152 154 149 147 140 140 151 148 139 131 134 139 150 155 161 166 168 172 173 175 184 185 184 187 186 189 193 192 180 175 192 198 195 199 197 195 191 182 180 175 202 208 220 219 219 232 237 232 230 236 237 240 253 253 216 216 210 205 191 229 235 242 246 240 210 241 228 230 218 175 192 233 233 235 179 174 178 194 231 245 255 272 276 282 286
120 119 130 128 128 132 143 133 123 121 135 150 153 161 165 166 169 170 175 183 189 190 185 182 181 184 188 192 182 182 194 193 199 202 197 189 168 163 177 189 191 199 220 243 240 243 248 249 239 234 241 235 244 252 221 189 200 191 187 215 226 232 240 244 247 241 234 230 223 218 222 235 233 238 211 179 182 201 229 245 254 260 276 275 290
126 122 129 128 125 120 107 102 98 119 140 153 156 156 160 160 163 172 188 193 185 175 170 172 183 191 192 186 175 187 193 200 202 201 200 193 174 177 179 175 172 174 193 230 245 250 252 250 244 240 242 239 239 248 244 172 177 177 183 196 228 234 246 250 257 249 239 242 234 231 239 206 206 222 212 198 194 199 219 241 248 255 259 347 355
106 125 129 103 92 85 84 80 88 124 140 146 147 145 148 156 167 189 190 166 156 158 165 171 191 190 194 188 185 189 195 199 203 199 195 188 178 175 171 162 165 181 207 231 241 243 247 250 246 239 240 250 249 237 269 198 177 188 186 194 221 232 242 257 258 247 243 242 247 244 244 174 187 207 206 188 191 198 202 224 243 252 303 332 292
96 83 67 93 95 91 89 100 108 117 124 130 135 135 141 156 179 180 151 148 158 165 171 184 194 193 195 198 198 192 191 194 206 206 197 185 177 176 162 155 150 161 208 228 230 229 236 248 248 247 250 250 252 236 218 251 224 199 182 190 215 247 224 242 248 252 247 249 248 247 190 139 177 175 182 196 203 197 193 238 256 291 290 283 270
69 72 71 83 88 90 93 88 90 95 112 128 139 136 148 159 168 140 140 154 162 170 176 192 191 192 194 197 195 194 193 196 206 195 186 176 184 180 160 131 139 187 212 224 224 225 240 250 249 246 245 251 250 256 202 211 248 178 174 188 201 222 232 227 244 254 260 264 256 243 139 136 157 179 195 206 190 204 255 281 217 240 236 227 223
69 67 64 64 78 85 86 80 72 75 71 80 108 140 147 151 137 145 157 160 162 167 179 195 196 196 195 196 194 191 191 199 199 190 173 177 183 160 151 152 188 184 196 229 237 230 237 245 250 246 240 228 197 234 248 188 198 186 185 189 194 199 221 244 253 247 253 265 77 94 119 143 157 196 219 232 225 224 240 226 206 204 198 202 214
82 76 73 86 94 97 97 94 80 73 82 90 98 127 135 130 139 149 148 151 156 165 179 194 197 197 197 192 188 184 189 200 186 190 186 94 201 188 174 163 158 196 199 216 232 239 244 244 249 251 229 200 200 210 229 196 184 178 187 181 196 189 203 217 236 278 17 93 138 149 139 181 198 193 185 200 214 151 175 185 188 197 207 221 241
86 93 108 119 119 103 97 102 103 109 117 127 125 118 115 132 136 139 143 152 162 167 171 188 191 192 191 190 187 188 188 184 185 163 135 175 208 168 72 149 183 193 212 220 209 211 216 226 235 227 209 194 190 204 219 235 279 248 259 162 210 215 193 200 209 212 202 193 158 176 108 82 65 122 116 90 118 146 158 167 169 185 203 242 245
68 73 68 66 67 85 100 109 114 127 133 136 129 132 136 146 146 147 150 158 162 170 172 186 186 186 186 187 186 183 181 183 175 163 156 176 186 175 191 195 201 191 178 181 204 208 220 223 218 208 206 195 167 178 148 319 320 313 300 293 281 270 223 234 226 225 205 166 140 120 145 162 157 156 138 149 162 168 144 150 154 169 162 144 245
42 36 30 43 46 57 58 62 74 96 113 114 111 124 150 155 154 150 150 160 162 162 160 173 181 179 178 176 182 177 176 162 140 118 81 54 155 179 174 149 101 160 189 180 176 173 208 218 215 211 213 169 153 183 106 33 314 314 282 296 272 252 232 207 34 32 142 157 168 189 201 195 191 176 194 197 186 197 172 162 163 201 204 214 227
42 42 44 47 47 67 94 112 134 152 146 139 142 147 156 154 137 142 152 153 154 157 158 160 167 174 177 169 181 187 165 161 156 150 133 101 58 47 37 113 130 49 46 47 41 195 200 199 184 81 17 275 2 71 129 200 250 293 283 267 330 16 19 42 109 201 275 213 215 225 210 227 199 209 214 227 244 254 254 227 176 152 240 260 294
56 64 59 71 79 112 137 148 163 165 155 151 146 144 135 132 139 146 159 156 152 142 141 151 160 172 161 150 154 162 164 165 155 156 149 141 113 55 41 42 59 97 68 56 76 52 19 346 315 162 84 57 75 111 110 109 69 36 39 75 117 139 126 132 157 171 207 210 202 231 233 193 201 246 252 265 283 278 266 268 263 255 282 253 253